STARLINK-1541, 46052

Orbit data source: Space-Track

STARLINK-1541, 46052 is a payload satellite owned by SpaceX/Seattle (US) in LEO that was launched on Fri, 07 Aug 2020 UTC via an FALCON 9 launch vehicle from the Air Force Eastern Test Range (AFETR). Payload-class satellites include a variety of spacecraft equipped with specific instruments for various scientific and technological missions. These include communications satellites like Starlink; space stations such as the ISS; scientific satellites like the Hubble; Earth observation satellites from companies like Planet Labs, Umbra, and HawkEye 360; GPS; miniature CubeSats for education and research; and military/defense satellites.

Loading next visibility...
Identifier
46052, 2020-055AB
Orbit
LEO
Country
Flag of USUS
Related business
Manufacturer
SpaceX/Seattle
Mission
Partially operational Commercial Communications
Bus & Motor
STARLINK, Unknown motor
Mass
260 kg wet, ~248 kg dry
Launch date (UTC)
2020-08-07 (6 years ago)
Launch vehicle
FALCON 9
Launch site
Air Force Eastern Test Range (AFETR)
Object type
Payload
Rocket body
Debris
Shape & HBR
Box + 1 Pan, 10.1 m
Radar Cross Section
13.562 m², Large (>1 m²)

Expand to show TLE details & history
Last TLE update: 4 hours ago

TLE from 4 hours ago
0 STARLINK-1541
1 46052U 20055AB  26127.75003471  .00472839  00000-0  30264-2 0  9994
2 46052  53.1585 194.0952 0001847  53.4018 349.6262 15.74408558  5898
Epoch: 2026-05-07T18:00Z
TLE epoch observation values (Epoch: 2026-05-07T18:00:02.998Z)
Latitude
33.2045°
Longitude
87.67438°
Altitude
347.338 km
Speed
7.706 km/s
True Right ascension
14h 53m 06s
True Declination
33° 02' 15"
Sunlit
Object was in full shadow at epoch
Visualization orbit readout
Latitude
Unknown
Longitude
Unknown
Altitude
Unknown
Speed
Unknown
Apparent Right ascension
Unknown
Apparent Declination
Unknown
Sunlit
N/A
Visualization observer readout
Local Sidereal Time
06:02:39
Azimuth
Unknown
Elevation
Unknown
Doppler factor
Unknown
Orbital elements
Apogee altitude
347.818 km
Perigee altitude
345.334 km
Semi-major axis
6,724.713 km
Eccentricity
0.00018
Inclination
53.1585°
RAAN
194.0952°
Arg. of periapsis
53.4018°
True anomaly
349.62239°
Mean anomaly
349.6262°
Eccentric anomaly
349.62429°
Mean motion
3.9358 °/min
Orbital period
91.47 mins
BSTAR
0.0030264
Loading maneuver chart data...
Computing Atmospheric mass density...
Loading historical data...
Loading historical data...
Loading historical data...
Loading historical data...
Loading historical data...
Loading historical data...
Loading historical data...

Documentation

Showing up to 5 results
|